Starlink 5369

operational
NORAD ID: 54837 Int'l Des: 2022-177 Owner: SPXS Country: US Constellation: starlink
LEOCIRCULAR

关于 Starlink 5369

正在加载描述...

实时位置

正在加载3D地球...

即将过境

高度历史

Altitude vs Time

uPlot chart will show altitude changes over time

两行轨道根数

1 54837U 22177T 25302.50330074 .00000236 00000-0 32557-4 0 9997
2 54837 43.0023 125.9740 0001107 269.5774 90.4942 15.02537935157223
Epoch: Oct 29, 2025 • Age: 15 hours

当前状态

高度 559.1 km
速度 7.58 km/s
星下点 -1.90°S, 142.85°W
发射日期 Dec 28, 2022
运行时间 2.8 years
类型 internet

技术详情

分类 Payload
质量 305.00 kg
干质量 290.00 kg
总质量 305.00 kg
长度 0.20 m
直径 2.80 m
跨度 9.00 m
形状 Box + pan
制造商 SPXS
平台类型 Starlink
阶段状态 In Orbit
所有者/国家 SPXS/US

大型星座

Loading constellations...